{"data":{"norad_id":68974,"intl_designator":"2026-099Z","name":"STARLINK-37362","alt_names":[],"object_type":"PAYLOAD","status":"ACTIVE","operator":null,"country":"US","launch_date":"2026-05-01","launch_site_code":"AFETR","launch_vehicle":null,"mission":null,"orbit_class":"UNKNOWN","rcs_meters":null,"size_class":null,"mass_kg":null,"dimensions":null,"purposes":["comms"],"wikipedia_slug":null,"has_3d_model":false,"image_url":null,"decayed_at":null,"tle_current":{"epoch":"2026-05-25T04:00:03.998880Z","epoch_age_seconds":60784,"freshness":"FRESH","line1":"1 68974U 26099Z   26145.16671295 -.02039102  00000+0 -32917-1 0  9996","line2":"2 68974  53.1597 270.3456 0001034  42.3273 115.0190 15.55442683  4961","mean_motion":15.55442683,"eccentricity":0.0001034,"inclination_deg":53.1597,"raan_deg":270.3456,"arg_perigee_deg":42.3273,"mean_anomaly_deg":115.019,"bstar":-0.032917,"rev_number":496,"period_min":92.578146127677,"perigee_km":400.16516080659,"apogee_km":401.56705864969,"semimajor_km":6779.0031097281,"source":"CELESTRAK","updated_at":"2026-05-25T13:38:22.077335Z"}}}